TimeMST,TemperatureF,Dew PointF,Humidity,Sea Level PressureIn,VisibilityMPH,Wind Direction,Wind SpeedMPH,Gust SpeedMPH,PrecipitationIn,Events,Conditions,WindDirDegrees,DateUTC
12:02 AM,27.0,25.0,92,30.11,1.0,NNE,11.5,-,0.00,Snow,Light Snow,20,2013-02-14 07:02:00
12:13 AM,27.0,25.0,92,30.11,4.0,NNE,10.4,-,0.01,Snow,Light Snow,20,2013-02-14 07:13:00
12:21 AM,27.0,25.0,92,30.12,7.0,NNE,9.2,-,0.01,Snow,Light Snow,20,2013-02-14 07:21:00
12:36 AM,28.0,21.9,78,30.12,9.0,North,17.3,23.0,0.01,Snow,Light Snow,10,2013-02-14 07:36:00
12:53 AM,28.0,19.9,72,30.22,10.0,North,16.1,-,0.01,,Overcast,10,2013-02-14 07:53:00
1:53 AM,27.0,19.0,72,30.23,8.0,NNW,20.7,-,0.00,Snow,Light Snow,340,2013-02-14 08:53:00
2:53 AM,28.0,17.1,63,30.24,10.0,NNW,21.9,29.9,0.00,,Overcast,340,2013-02-14 09:53:00
3:53 AM,26.1,18.0,71,30.29,10.0,West,15.0,-,N/A,,Overcast,280,2013-02-14 10:53:00
4:53 AM,26.6,17.6,69,30.20,10.0,WNW,16.1,-,N/A,,Overcast,290,2013-02-14 11:53:00
5:53 AM,26.1,17.1,69,30.33,10.0,West,10.4,-,N/A,,Overcast,270,2013-02-14 12:53:00
6:53 AM,26.1,16.0,66,30.37,10.0,WNW,13.8,-,N/A,,Overcast,290,2013-02-14 13:53:00
7:53 AM,26.1,15.1,63,30.39,10.0,WNW,17.3,-,N/A,,Overcast,300,2013-02-14 14:53:00
8:53 AM,26.6,14.0,59,30.30,10.0,NW,11.5,-,N/A,,Mostly Cloudy,310,2013-02-14 15:53:00
9:53 AM,28.0,12.9,53,30.40,10.0,WNW,16.1,-,N/A,,Mostly Cloudy,300,2013-02-14 16:53:00
10:53 AM,30.0,14.0,51,30.40,10.0,WNW,11.5,-,N/A,,Mostly Cloudy,290,2013-02-14 17:53:00
11:53 AM,30.9,15.1,52,30.41,10.0,West,11.5,-,N/A,,Mostly Cloudy,280,2013-02-14 18:53:00
12:53 PM,30.9,15.1,52,30.40,10.0,West,12.7,-,N/A,,Mostly Cloudy,280,2013-02-14 19:53:00
1:53 PM,32.0,15.1,50,30.38,10.0,West,10.4,-,N/A,,Overcast,260,2013-02-14 20:53:00
2:53 PM,32.0,14.0,48,30.37,10.0,WSW,9.2,-,N/A,,Overcast,250,2013-02-14 21:53:00
3:53 PM,32.0,19.0,59,30.38,10.0,WSW,10.4,-,N/A,,Mostly Cloudy,240,2013-02-14 22:53:00
4:53 PM,28.0,21.9,78,30.38,10.0,SW,12.7,-,N/A,,Overcast,230,2013-02-14 23:53:00
5:53 PM,27.0,21.0,78,30.38,10.0,WSW,16.1,-,N/A,,Overcast,250,2013-02-15 00:53:00
6:35 PM,27.0,21.0,78,30.27,2.5,WSW,11.5,-,0.00,Snow,Light Snow,240,2013-02-15 01:35:00
6:53 PM,26.1,21.9,84,30.40,2.5,WSW,12.7,-,0.00,Snow,Light Snow,250,2013-02-15 01:53:00
7:05 PM,26.1,21.9,84,30.27,5.0,WSW,12.7,-,0.00,Snow,Light Snow,250,2013-02-15 02:05:00
7:13 PM,26.1,21.9,84,30.27,5.0,WSW,13.8,-,0.00,Snow,Light Snow,250,2013-02-15 02:13:00
7:21 PM,26.1,23.0,88,30.27,2.0,WSW,12.7,-,0.00,Snow,Light Snow,250,2013-02-15 02:21:00
7:23 PM,26.1,23.0,88,30.28,1.5,West,12.7,-,0.00,Snow,Light Snow,260,2013-02-15 02:23:00
7:44 PM,26.1,23.0,88,30.28,1.2,WSW,11.5,-,0.01,Snow,Light Snow,250,2013-02-15 02:44:00
7:53 PM,26.1,23.0,88,30.40,2.0,WSW,12.7,-,0.01,Snow,Light Snow,240,2013-02-15 02:53:00
8:01 PM,26.6,23.0,86,30.27,2.0,WSW,9.2,-,N/A,Snow,Light Snow,250,2013-02-15 03:01:00
8:12 PM,26.1,23.0,88,30.27,0.8,WSW,11.5,-,0.01,Snow,Light Snow,240,2013-02-15 03:12:00
8:37 PM,26.1,24.1,92,30.27,1.5,WSW,12.7,-,0.02,Snow,Light Snow,250,2013-02-15 03:37:00
8:44 PM,26.1,23.0,88,30.27,2.5,WSW,11.5,-,0.02,Snow,Light Snow,250,2013-02-15 03:44:00
8:53 PM,25.0,24.1,96,30.40,4.0,WSW,10.4,-,0.02,Snow,Light Snow,240,2013-02-15 03:53:00
9:12 PM,26.1,23.0,88,30.27,2.0,WSW,10.4,-,0.00,Snow,Light Snow,240,2013-02-15 04:12:00
9:26 PM,25.0,23.0,92,30.27,3.0,WSW,11.5,-,0.01,Snow,Light Snow,240,2013-02-15 04:26:00
9:53 PM,25.0,23.0,92,30.38,4.0,WSW,13.8,-,0.01,Snow,Light Snow,240,2013-02-15 04:53:00
10:17 PM,25.0,23.0,92,30.26,6.0,WSW,12.7,-,0.00,Snow,Light Snow,240,2013-02-15 05:17:00
10:53 PM,25.0,23.0,92,30.38,10.0,WSW,17.3,-,0.00,Fog,Overcast,240,2013-02-15 05:53:00
11:53 PM,25.0,21.9,88,30.38,10.0,WSW,18.4,-,N/A,,Overcast,240,2013-02-15 06:53:00